This is the latest recevied weather packets stored in our database for station/object W8BUG. If no packets are shown the sender has not sent any weather packets the latest 1 day(s).
| Time | Temp. | Humidity | Pressure | Rain* | Wind** | Luminosity | Snow |
|---|---|---|---|---|---|---|---|
| 1778010223 | - | - | - | 0 mm | 0 m/s | - | - |
| 1778009918 | - | - | - | 0 mm | 0.89 m/s, 69° | - | - |
| 1778009616 | - | - | - | 0 mm | 0.89 m/s, 71° | - | - |
| 1778009313 | - | - | - | 0 mm | 1.34 m/s, 84° | - | - |
| 1778009011 | - | - | - | 0 mm | 0 m/s | - | - |
| 1778008709 | - | - | - | 0 mm | 1.34 m/s, 71° | - | - |
| 1778008407 | - | - | - | 0 mm | 0.89 m/s, 68° | - | - |
| 1778008103 | - | - | - | 0 mm | 1.79 m/s, 74° | - | - |
| 1778007799 | - | - | - | 0 mm | 1.79 m/s, 53° | - | - |
| 1778007495 | - | - | - | 0 mm | 0 m/s | - | - |
| 1778007191 | - | - | - | 0 mm | 1.34 m/s, 76° | - | - |
| 1778006887 | - | - | - | 0 mm | 0.45 m/s, 71° | - | - |
| 1778006585 | - | - | - | 0 mm | 0.45 m/s, 65° | - | - |
| 1778006282 | - | - | - | 0 mm | 1.34 m/s, 70° | - | - |
| 1778005979 | - | - | - | 0 mm | 0.45 m/s, 69° | - | - |
| 1778005676 | - | - | - | 0 mm | 1.34 m/s, 70° | - | - |
| 1778005372 | - | - | - | 0 mm | 0 m/s | - | - |
| 1778005069 | - | - | - | 0 mm | 0 m/s | - | - |
| 1778004766 | - | - | - | 0 mm | 1.34 m/s, 85° | - | - |
| 1778004463 | - | - | - | 0 mm | 0.89 m/s, 73° | - | - |
| 1778004159 | - | - | - | 0 mm | 1.34 m/s, 69° | - | - |
| 1778003856 | - | - | - | 0 mm | 1.79 m/s, 80° | - | - |
| 1778003552 | - | - | - | 0 mm | 2.24 m/s, 79° | - | - |
| 1778003249 | - | - | - | 0 mm | 0.89 m/s, 74° | - | - |
| 1778002946 | - | - | - | 0 mm | 3.58 m/s, 76° | - | - |
* Rain latest hour (hover to see other rain measurements)
** Current wind speed in m/s (hover to see current wind gust speed)